Hourly Data Report for February 27, 2018

MIRAMICHI RCS
NEW BRUNSWICK

47°00'34.000" N
65°27'54.000" W
33.00 m
8100989
71744
ACQ

Download Data

Hourly Data (February 2018)
Hourly Data Report for February 27, 2018
TIME
LST
Temp Definition
°C
Dew Point Definition
°C
Rel Hum Definition
%
Precip. Amount Definition
mm

Wind Dir Definition
10's deg

Wind Spd Definition
km/h
Visibility Definition
km
Stn Press Definition
kPa
Hmdx Definition


Wind Chill Definition


Weather Definition


00:00 -1.8 -4.7 81 0.0 27 9   100.91   -5 LegendNANA
01:00 -3.1 -5.5 83 0.0 24 9   101.00   -7 LegendNANA
02:00 -3.3 -5.9 82 0.0 25 7   101.05   -6 LegendNANA
03:00 -3.7 -6.7 80 0.0 27 7   101.08   -7 LegendNANA
04:00 -3.9 -7.2 77 0.0 25 9   101.12   -8 LegendNANA
05:00 -4.6 -7.7 79 0.0 26 10   101.13   -9 LegendNANA
06:00 -5.1 -7.6 82 0.0 25 11   101.17   -10 LegendNANA
07:00 -5.1 -7.9 81 0.0 26 11   101.26   -10 LegendNANA
08:00 -4.4 -8.0 76 0.0 26 15   101.34   -10 LegendNANA
09:00 -2.6 -7.8 67 0.0 26 14   101.40   -7 LegendNANA
10:00 0.3 -7.3 57 0.0 26 13   101.40     LegendNANA
11:00 2.2 -7.2 50 0.0 27 16   101.35     LegendNANA
12:00 2.0 -5.6 57 0.0 33 10   101.31     LegendNANA
13:00 2.4 -6.8 50 0.0 31 17   101.25     LegendNANA
14:00 3.1 -8.4 43 0.0 28 20   101.23     LegendNANA
15:00 3.7 -9.1 39 0.0 30 19   101.21     LegendNANA
16:00 1.6 -5.1 61 0.0 1 8   101.24     LegendNANA
17:00 1.8 -5.1 60 0.0 36 4   101.23     LegendNANA
18:00 1.0 -5.4 62 0.0 0 1   101.27     LegendNANA
19:00 -2.2 -5.7 77 0.0 9 6   101.31   -5 LegendNANA
20:00 -2.9 -5.4 83 0.0 15 2   101.34   -4 LegendNANA
21:00 -4.8 -6.6 87 0.0 13 1   101.37   -5 LegendNANA
22:00 -4.5 -5.9 89 0.0 21 1   101.37   -5 LegendNANA
23:00 -5.9 -7.4 89 0.0   0   101.33     LegendNANA

Notes on Data Quality.

Legend

  • E = Estimated
  • M = Missing
  • NA = Not Available*
  • [empty] = Indicates an unobserved value
Date modified: